Location: Igon
(43.1667°N, 0.2333°W)
Time: 20:56:49
(UTC+00:00)

FENGYUN 3A - Pass Details

Date: 29 November 2020
Orbit: 823 x 837 km, 98.4° (Epoch: 19 January)

Event Time Altitude Azimuth Distance (km) Brightness Sun altitude
Rises 04:52:42 0° 10° (N) 3,389 6.9 -24.7°
Reaches altitude 10° 04:55:04 10° 8° (N) 2,449 6.1 -24.2°
Maximum altitude 05:00:27 67° 287° (WNW) 900 3.5 -23.3°
Drops below altitude 10° 05:05:46 10° 206° (SSW) 2,423 5.9 -22.3°
Sets 05:08:07 0° 204° (SSW) 3,350 6.7 -21.9°
